Wetterdaten: Mittwoch, 12.05.2010
Datum Zeit Temp. A. Feuchte A. Luftdruck Regen Wind Richtung Richtung Sonnenschein UV Solar Windben
12.05.2010 00:00 11,1 C 79 % 1003,4 hPa 0,0 mm 4,8 km/h (1 Bft) NO 45 0 min 0 UV-I 0 W/m 9,7 km/h (2 Bft)
12.05.2010 00:10 11,1 C 80 % 1003,4 hPa 0,0 mm 3,2 km/h (1 Bft) O-NO 67 0 min 0 UV-I 0 W/m 11,3 km/h (2 Bft)
12.05.2010 00:20 11,1 C 80 % 1003,3 hPa 0,0 mm 3,2 km/h (1 Bft) O 90 0 min 0 UV-I 0 W/m 11,3 km/h (2 Bft)
12.05.2010 00:30 10,9 C 81 % 1003,3 hPa 0,0 mm 3,2 km/h (1 Bft) O-NO 67 0 min 0 UV-I 0 W/m 11,3 km/h (2 Bft)
12.05.2010 00:40 10,8 C 82 % 1003,0 hPa 0,3 mm 3,2 km/h (1 Bft) O-NO 67 0 min 0 UV-I 0 W/m 9,7 km/h (2 Bft)
12.05.2010 00:50 10,7 C 83 % 1002,9 hPa 0,0 mm 1,6 km/h (1 Bft) O-NO 67 0 min 0 UV-I 0 W/m 8,0 km/h (2 Bft)
12.05.2010 01:00 10,6 C 83 % 1002,8 hPa 0,0 mm 0,0 km/h (0 Bft) N-NO 22 0 min 0 UV-I 0 W/m 4,8 km/h (1 Bft)
12.05.2010 01:10 10,5 C 84 % 1002,7 hPa 0,0 mm 1,6 km/h (1 Bft) N-NO 22 0 min 0 UV-I 0 W/m 6,4 km/h (2 Bft)
12.05.2010 01:20 10,3 C 84 % 1002,6 hPa 0,0 mm 1,6 km/h (1 Bft) N-NO 22 0 min 0 UV-I 0 W/m 6,4 km/h (2 Bft)
12.05.2010 01:30 10,3 C 85 % 1002,5 hPa 0,3 mm 1,6 km/h (1 Bft) N-NO 22 0 min 0 UV-I 0 W/m 6,4 km/h (2 Bft)
12.05.2010 01:40 10,2 C 85 % 1002,4 hPa 0,0 mm 1,6 km/h (1 Bft) N-NO 22 0 min 0 UV-I 0 W/m 6,4 km/h (2 Bft)
12.05.2010 01:50 10,1 C 86 % 1002,3 hPa 0,0 mm 1,6 km/h (1 Bft) N 360 0 min 0 UV-I 0 W/m 6,4 km/h (2 Bft)
12.05.2010 02:00 10,0 C 86 % 1002,3 hPa 0,0 mm 0,0 km/h (0 Bft) N-NO 22 0 min 0 UV-I 0 W/m 6,4 km/h (2 Bft)
12.05.2010 02:10 9,9 C 86 % 1002,2 hPa 0,0 mm 0,0 km/h (0 Bft) N-NO 22 0 min 0 UV-I 0 W/m 3,2 km/h (1 Bft)
12.05.2010 02:20 9,9 C 86 % 1002,2 hPa 0,3 mm 0,0 km/h (0 Bft) N-NO 22 0 min 0 UV-I 0 W/m 4,8 km/h (1 Bft)
12.05.2010 02:30 9,8 C 86 % 1002,1 hPa 0,3 mm 0,0 km/h (0 Bft) N-NO 22 0 min 0 UV-I 0 W/m 6,4 km/h (2 Bft)
12.05.2010 02:40 9,8 C 87 % 1002,1 hPa 0,0 mm 0,0 km/h (0 Bft) N-NO 22 0 min 0 UV-I 0 W/m 3,2 km/h (1 Bft)
12.05.2010 02:50 9,7 C 87 % 1002,1 hPa 0,5 mm 0,0 km/h (0 Bft) N 0 0 min 0 UV-I 0 W/m 0,0 km/h (0 Bft)
12.05.2010 03:00 9,7 C 87 % 1002,0 hPa 0,0 mm 0,0 km/h (0 Bft) N 0 0 min 0 UV-I 0 W/m 0,0 km/h (0 Bft)
12.05.2010 03:10 9,7 C 87 % 1002,0 hPa 0,0 mm 0,0 km/h (0 Bft) N-NO 22 0 min 0 UV-I 0 W/m 1,6 km/h (1 Bft)
12.05.2010 03:20 9,7 C 87 % 1002,0 hPa 0,0 mm 0,0 km/h (0 Bft) N-NO 22 0 min 0 UV-I 0 W/m 1,6 km/h (1 Bft)
12.05.2010 03:30 9,7 C 88 % 1001,9 hPa 0,0 mm 0,0 km/h (0 Bft) N-NO 22 0 min 0 UV-I 0 W/m 3,2 km/h (1 Bft)
12.05.2010 03:40 9,7 C 88 % 1001,9 hPa 0,0 mm 0,0 km/h (0 Bft) O-SO 112 0 min 0 UV-I 0 W/m 4,8 km/h (1 Bft)
12.05.2010 03:50 9,6 C 88 % 1001,9 hPa 0,0 mm 1,6 km/h (1 Bft) O-SO 112 0 min 0 UV-I 0 W/m 4,8 km/h (1 Bft)
12.05.2010 04:00 9,6 C 88 % 1001,8 hPa 0,0 mm 0,0 km/h (0 Bft) O 90 0 min 0 UV-I 0 W/m 4,8 km/h (1 Bft)
12.05.2010 04:10 9,6 C 88 % 1001,7 hPa 0,0 mm 0,0 km/h (0 Bft) O 90 0 min 0 UV-I 0 W/m 3,2 km/h (1 Bft)
12.05.2010 04:20 9,6 C 89 % 1001,7 hPa 0,0 mm 0,0 km/h (0 Bft) O 90 0 min 0 UV-I 0 W/m 3,2 km/h (1 Bft)
12.05.2010 04:30 9,5 C 89 % 1001,6 hPa 0,0 mm 0,0 km/h (0 Bft) O 90 0 min 0 UV-I 0 W/m 1,6 km/h (1 Bft)
12.05.2010 04:40 9,5 C 89 % 1001,5 hPa 0,0 mm 0,0 km/h (0 Bft) O 90 0 min 0 UV-I 0 W/m 3,2 km/h (1 Bft)
12.05.2010 04:50 9,5 C 89 % 1001,6 hPa 0,0 mm 0,0 km/h (0 Bft) O 90 0 min 0 UV-I 0 W/m 3,2 km/h (1 Bft)
12.05.2010 05:00 9,5 C 89 % 1001,6 hPa 0,0 mm 0,0 km/h (0 Bft) O 90 0 min 0 UV-I 0 W/m 1,6 km/h (1 Bft)
12.05.2010 05:10 9,5 C 89 % 1001,6 hPa 0,0 mm 0,0 km/h (0 Bft) O 90 0 min 0 UV-I 0 W/m 1,6 km/h (1 Bft)
12.05.2010 05:20 9,5 C 89 % 1001,5 hPa 0,0 mm 0,0 km/h (0 Bft) O 90 0 min 0 UV-I 0 W/m 1,6 km/h (1 Bft)
12.05.2010 05:30 9,5 C 89 % 1001,5 hPa 0,0 mm 0,0 km/h (0 Bft) O 90 0 min 0 UV-I 0 W/m 3,2 km/h (1 Bft)
12.05.2010 05:40 9,5 C 89 % 1001,5 hPa 0,3 mm 0,0 km/h (0 Bft) O 90 0 min 0 UV-I 0 W/m 1,6 km/h (1 Bft)
12.05.2010 05:50 9,5 C 89 % 1001,6 hPa 0,0 mm 0,0 km/h (0 Bft) O 90 0 min 0 UV-I 0 W/m 1,6 km/h (1 Bft)
12.05.2010 06:00 9,5 C 89 % 1001,5 hPa 0,0 mm 0,0 km/h (0 Bft) O 90 0 min 0 UV-I 0 W/m 1,6 km/h (1 Bft)
12.05.2010 06:10 9,5 C 89 % 1001,6 hPa 0,0 mm 0,0 km/h (0 Bft) O 90 0 min 0 UV-I 0 W/m 1,6 km/h (1 Bft)
12.05.2010 06:20 9,5 C 90 % 1001,6 hPa 0,0 mm 0,0 km/h (0 Bft) O 90 0 min 0 UV-I 5 W/m 1,6 km/h (1 Bft)
12.05.2010 06:30 9,5 C 90 % 1001,7 hPa 0,0 mm 0,0 km/h (0 Bft) O 90 0 min 0 UV-I 5 W/m 1,6 km/h (1 Bft)
12.05.2010 06:40 9,6 C 90 % 1001,8 hPa 0,0 mm 0,0 km/h (0 Bft) N 0 0 min 0 UV-I 9 W/m 0,0 km/h (0 Bft)
12.05.2010 06:50 9,6 C 90 % 1002,0 hPa 0,0 mm 0,0 km/h (0 Bft) O 90 0 min 0 UV-I 12 W/m 4,8 km/h (1 Bft)
12.05.2010 07:00 9,6 C 90 % 1002,4 hPa 0,0 mm 6,4 km/h (2 Bft) S-SW 202 0 min 0 UV-I 11 W/m 25,7 km/h (4 Bft)
12.05.2010 07:10 9,2 C 89 % 1002,7 hPa 0,0 mm 8,0 km/h (2 Bft) W-SW 247 0 min 0 UV-I 16 W/m 24,1 km/h (4 Bft)
12.05.2010 07:20 8,8 C 89 % 1002,8 hPa 0,0 mm 6,4 km/h (2 Bft) W-SW 247 0 min 0 UV-I 16 W/m 19,3 km/h (3 Bft)
12.05.2010 07:30 8,5 C 89 % 1003,0 hPa 0,0 mm 6,4 km/h (2 Bft) W-SW 247 0 min 0 UV-I 23 W/m 22,5 km/h (4 Bft)
12.05.2010 07:40 8,2 C 89 % 1003,2 hPa 0,0 mm 8,0 km/h (2 Bft) W-SW 247 0 min 0 UV-I 30 W/m 17,7 km/h (3 Bft)
12.05.2010 07:50 7,9 C 90 % 1003,5 hPa 0,0 mm 9,7 km/h (2 Bft) W 270 0 min 0 UV-I 77 W/m 22,5 km/h (4 Bft)
12.05.2010 08:00 7,6 C 90 % 1003,6 hPa 0,0 mm 12,1 km/h (2 Bft) W 273 0 min 0 UV-I 49 W/m 20,9 km/h (4 Bft)
12.05.2010 08:10 7,5 C 90 % 1003,7 hPa 0,0 mm 11,3 km/h (2 Bft) W 270 0 min 0 UV-I 56 W/m 32,2 km/h (5 Bft)
12.05.2010 08:20 7,4 C 90 % 1003,7 hPa 0,0 mm 8,0 km/h (2 Bft) W-SW 247 0 min 1 UV-I 90 W/m 29,0 km/h (5 Bft)
12.05.2010 08:30 7,4 C 90 % 1004,0 hPa 0,0 mm 8,0 km/h (2 Bft) W-SW 247 0 min 0 UV-I 67 W/m 25,7 km/h (4 Bft)
12.05.2010 08:40 7,3 C 90 % 1004,2 hPa 0,0 mm 8,0 km/h (2 Bft) W 270 0 min 0 UV-I 32 W/m 22,5 km/h (4 Bft)
12.05.2010 08:50 7,2 C 90 % 1004,4 hPa 0,0 mm 6,4 km/h (2 Bft) W-SW 247 0 min 0 UV-I 42 W/m 24,1 km/h (4 Bft)
12.05.2010 09:00 7,2 C 90 % 1004,6 hPa 0,0 mm 4,8 km/h (1 Bft) W-SW 247 0 min 0 UV-I 53 W/m 19,3 km/h (3 Bft)
12.05.2010 09:10 7,2 C 90 % 1004,6 hPa 0,0 mm 4,8 km/h (1 Bft) W-SW 247 0 min 0 UV-I 47 W/m 17,7 km/h (3 Bft)
12.05.2010 09:20 7,2 C 90 % 1004,7 hPa 0,0 mm 8,0 km/h (2 Bft) W-SW 247 0 min 0 UV-I 39 W/m 22,5 km/h (4 Bft)
12.05.2010 09:30 7,2 C 90 % 1004,9 hPa 0,0 mm 8,0 km/h (2 Bft) W 270 0 min 0 UV-I 37 W/m 24,1 km/h (4 Bft)
12.05.2010 09:40 7,1 C 90 % 1005,0 hPa 0,0 mm 8,0 km/h (2 Bft) W-SW 247 0 min 0 UV-I 42 W/m 24,1 km/h (4 Bft)
12.05.2010 09:50 7,1 C 90 % 1005,1 hPa 0,0 mm 9,7 km/h (2 Bft) W-SW 247 0 min 0 UV-I 44 W/m 22,5 km/h (4 Bft)
12.05.2010 10:00 7,0 C 90 % 1005,4 hPa 0,0 mm 6,4 km/h (2 Bft) W-SW 247 0 min 0 UV-I 62 W/m 19,3 km/h (3 Bft)
12.05.2010 10:10 7,1 C 90 % 1005,5 hPa 0,0 mm 6,4 km/h (2 Bft) W 270 0 min 1 UV-I 69 W/m 19,3 km/h (3 Bft)
12.05.2010 10:20 7,1 C 90 % 1005,6 hPa 0,0 mm 8,0 km/h (2 Bft) W-SW 247 0 min 1 UV-I 63 W/m 20,9 km/h (4 Bft)
12.05.2010 10:30 7,1 C 90 % 1005,7 hPa 0,0 mm 6,4 km/h (2 Bft) W-SW 247 0 min 1 UV-I 65 W/m 20,9 km/h (4 Bft)
12.05.2010 10:40 7,2 C 89 % 1005,8 hPa 0,0 mm 8,0 km/h (2 Bft) W-SW 247 0 min 1 UV-I 83 W/m 22,5 km/h (4 Bft)
12.05.2010 10:50 7,2 C 89 % 1005,8 hPa 0,0 mm 8,0 km/h (2 Bft) W-SW 247 0 min 1 UV-I 98 W/m 25,7 km/h (4 Bft)
12.05.2010 11:00 7,2 C 89 % 1005,9 hPa 0,0 mm 8,0 km/h (2 Bft) W-SW 247 0 min 1 UV-I 90 W/m 20,9 km/h (4 Bft)
12.05.2010 11:10 7,3 C 88 % 1006,0 hPa 0,0 mm 8,0 km/h (2 Bft) W-SW 247 0 min 1 UV-I 91 W/m 20,9 km/h (4 Bft)
12.05.2010 11:20 7,3 C 87 % 1006,1 hPa 0,0 mm 4,8 km/h (1 Bft) W-SW 247 0 min 1 UV-I 81 W/m 22,5 km/h (4 Bft)
12.05.2010 11:30 7,4 C 87 % 1006,2 hPa 0,0 mm 6,4 km/h (2 Bft) W-SW 247 0 min 1 UV-I 104 W/m 17,7 km/h (3 Bft)
12.05.2010 11:40 7,6 C 87 % 1006,2 hPa 0,0 mm 6,4 km/h (2 Bft) W-SW 247 0 min 1 UV-I 77 W/m 20,9 km/h (4 Bft)
12.05.2010 11:50 7,6 C 86 % 1006,3 hPa 0,0 mm 4,8 km/h (1 Bft) W-SW 247 0 min 1 UV-I 79 W/m 17,7 km/h (3 Bft)
12.05.2010 12:00 7,7 C 85 % 1006,3 hPa 0,0 mm 9,7 km/h (2 Bft) W-SW 247 0 min 1 UV-I 86 W/m 24,1 km/h (4 Bft)
12.05.2010 12:10 7,7 C 85 % 1006,5 hPa 0,0 mm 4,8 km/h (1 Bft) SW 225 0 min 1 UV-I 81 W/m 14,5 km/h (3 Bft)
12.05.2010 12:20 7,8 C 84 % 1006,7 hPa 0,0 mm 8,0 km/h (2 Bft) W-SW 247 0 min 1 UV-I 100 W/m 20,9 km/h (4 Bft)
12.05.2010 12:30 7,9 C 84 % 1006,7 hPa 0,0 mm 6,4 km/h (2 Bft) W 270 0 min 1 UV-I 98 W/m 19,3 km/h (3 Bft)
12.05.2010 12:40 7,9 C 83 % 1006,9 hPa 0,0 mm 8,0 km/h (2 Bft) W 270 0 min 1 UV-I 91 W/m 25,7 km/h (4 Bft)
12.05.2010 12:50 8,0 C 83 % 1006,9 hPa 0,0 mm 8,0 km/h (2 Bft) W-SW 247 0 min 1 UV-I 65 W/m 22,5 km/h (4 Bft)
12.05.2010 13:00 8,0 C 83 % 1007,0 hPa 0,0 mm 6,4 km/h (2 Bft) W 270 0 min 1 UV-I 65 W/m 20,9 km/h (4 Bft)
12.05.2010 13:10 8,0 C 83 % 1007,1 hPa 0,0 mm 6,4 km/h (2 Bft) W-SW 247 0 min 1 UV-I 79 W/m 17,7 km/h (3 Bft)
12.05.2010 13:20 8,0 C 83 % 1007,3 hPa 0,0 mm 6,4 km/h (2 Bft) SW 225 0 min 1 UV-I 76 W/m 24,1 km/h (4 Bft)
12.05.2010 13:30 8,0 C 83 % 1007,5 hPa 0,0 mm 6,4 km/h (2 Bft) W-SW 247 0 min 1 UV-I 77 W/m 20,9 km/h (4 Bft)
12.05.2010 13:40 8,0 C 83 % 1007,6 hPa 0,0 mm 8,0 km/h (2 Bft) W-SW 247 0 min 1 UV-I 74 W/m 24,1 km/h (4 Bft)
12.05.2010 13:50 7,9 C 83 % 1007,6 hPa 0,0 mm 4,8 km/h (1 Bft) W-SW 247 0 min 1 UV-I 84 W/m 14,5 km/h (3 Bft)
12.05.2010 14:00 8,0 C 83 % 1007,7 hPa 0,0 mm 3,2 km/h (1 Bft) S-SW 202 0 min 1 UV-I 58 W/m 16,1 km/h (3 Bft)
12.05.2010 14:10 8,1 C 83 % 1007,7 hPa 0,0 mm 4,8 km/h (1 Bft) W-SW 247 0 min 1 UV-I 56 W/m 22,5 km/h (4 Bft)
12.05.2010 14:20 8,1 C 83 % 1007,9 hPa 0,0 mm 8,0 km/h (2 Bft) W-SW 247 0 min 1 UV-I 67 W/m 22,5 km/h (4 Bft)
12.05.2010 14:30 8,1 C 83 % 1008,0 hPa 0,0 mm 8,0 km/h (2 Bft) W-SW 247 0 min 1 UV-I 86 W/m 20,9 km/h (4 Bft)
12.05.2010 14:40 8,1 C 83 % 1008,1 hPa 0,0 mm 6,4 km/h (2 Bft) W-SW 247 0 min 1 UV-I 93 W/m 20,9 km/h (4 Bft)
12.05.2010 14:50 8,1 C 82 % 1008,2 hPa 0,0 mm 8,0 km/h (2 Bft) W 270 0 min 1 UV-I 97 W/m 20,9 km/h (4 Bft)
12.05.2010 15:00 8,1 C 82 % 1008,2 hPa 0,0 mm 6,4 km/h (2 Bft) W-SW 247 0 min 1 UV-I 93 W/m 19,3 km/h (3 Bft)
12.05.2010 15:10 8,2 C 82 % 1008,1 hPa 0,0 mm 6,4 km/h (2 Bft) W 270 0 min 1 UV-I 113 W/m 16,1 km/h (3 Bft)
12.05.2010 15:20 8,2 C 82 % 1008,2 hPa 0,0 mm 8,0 km/h (2 Bft) W-SW 247 0 min 1 UV-I 104 W/m 25,7 km/h (4 Bft)
12.05.2010 15:30 8,3 C 82 % 1008,2 hPa 0,0 mm 4,8 km/h (1 Bft) W 270 0 min 1 UV-I 111 W/m 16,1 km/h (3 Bft)
12.05.2010 15:40 8,3 C 82 % 1008,2 hPa 0,0 mm 4,8 km/h (1 Bft) W-SW 247 0 min 1 UV-I 139 W/m 17,7 km/h (3 Bft)
12.05.2010 15:50 8,4 C 82 % 1008,2 hPa 0,0 mm 8,0 km/h (2 Bft) W 270 0 min 1 UV-I 107 W/m 22,5 km/h (4 Bft)
12.05.2010 16:00 8,4 C 81 % 1008,1 hPa 0,0 mm 9,6 km/h (2 Bft) W-NW 284 0 min 1 UV-I 95 W/m 19,3 km/h (3 Bft)
12.05.2010 16:10 8,4 C 81 % 1008,2 hPa 0,0 mm 8,0 km/h (2 Bft) W-SW 247 0 min 1 UV-I 111 W/m 20,9 km/h (4 Bft)
12.05.2010 16:20 8,4 C 81 % 1008,3 hPa 0,0 mm 8,0 km/h (2 Bft) W-SW 247 0 min 1 UV-I 134 W/m 20,9 km/h (4 Bft)
12.05.2010 16:30 8,5 C 81 % 1008,3 hPa 0,0 mm 9,7 km/h (2 Bft) W-SW 247 0 min 1 UV-I 127 W/m 24,1 km/h (4 Bft)
12.05.2010 16:40 8,5 C 81 % 1008,3 hPa 0,0 mm 6,4 km/h (2 Bft) SW 225 0 min 1 UV-I 121 W/m 17,7 km/h (3 Bft)
12.05.2010 16:50 8,6 C 81 % 1008,4 hPa 0,0 mm 6,4 km/h (2 Bft) W 270 0 min 1 UV-I 148 W/m 20,9 km/h (4 Bft)
12.05.2010 17:00 8,7 C 80 % 1008,4 hPa 0,0 mm 8,0 km/h (2 Bft) W-SW 247 0 min 1 UV-I 167 W/m 20,9 km/h (4 Bft)
12.05.2010 17:10 8,7 C 81 % 1008,6 hPa 0,0 mm 6,4 km/h (2 Bft) W-SW 247 0 min 1 UV-I 109 W/m 20,9 km/h (4 Bft)
12.05.2010 17:20 8,7 C 81 % 1008,6 hPa 0,0 mm 6,4 km/h (2 Bft) W 270 0 min 1 UV-I 86 W/m 16,1 km/h (3 Bft)
12.05.2010 17:30 8,6 C 81 % 1008,6 hPa 0,0 mm 6,4 km/h (2 Bft) SW 225 0 min 1 UV-I 79 W/m 19,3 km/h (3 Bft)
12.05.2010 17:40 8,6 C 81 % 1008,6 hPa 0,0 mm 3,2 km/h (1 Bft) W 270 0 min 0 UV-I 56 W/m 14,5 km/h (3 Bft)
12.05.2010 17:50 8,5 C 82 % 1008,6 hPa 0,0 mm 4,8 km/h (1 Bft) W-SW 247 0 min 0 UV-I 47 W/m 17,7 km/h (3 Bft)
12.05.2010 18:00 8,4 C 82 % 1008,5 hPa 0,0 mm 4,8 km/h (1 Bft) W-SW 247 0 min 0 UV-I 60 W/m 22,5 km/h (4 Bft)
12.05.2010 18:10 8,3 C 83 % 1008,6 hPa 0,0 mm 4,8 km/h (1 Bft) W-SW 247 0 min 0 UV-I 51 W/m 14,5 km/h (3 Bft)
12.05.2010 18:20 8,3 C 83 % 1008,6 hPa 0,0 mm 8,0 km/h (2 Bft) W 270 0 min 0 UV-I 37 W/m 22,5 km/h (4 Bft)
12.05.2010 18:30 8,2 C 84 % 1008,6 hPa 0,0 mm 6,4 km/h (2 Bft) W 270 0 min 0 UV-I 40 W/m 16,1 km/h (3 Bft)
12.05.2010 18:40 8,1 C 84 % 1008,8 hPa 0,0 mm 6,4 km/h (2 Bft) W 270 0 min 0 UV-I 28 W/m 14,5 km/h (3 Bft)
12.05.2010 18:50 8,0 C 85 % 1008,8 hPa 0,0 mm 3,2 km/h (1 Bft) W-SW 247 0 min 0 UV-I 30 W/m 9,7 km/h (2 Bft)
12.05.2010 19:00 8,0 C 85 % 1008,9 hPa 0,0 mm 6,4 km/h (2 Bft) W-SW 247 0 min 0 UV-I 26 W/m 17,7 km/h (3 Bft)
12.05.2010 19:10 7,9 C 86 % 1009,0 hPa 0,0 mm 3,2 km/h (1 Bft) W-SW 247 0 min 0 UV-I 16 W/m 11,3 km/h (2 Bft)
12.05.2010 19:20 7,9 C 87 % 1009,0 hPa 0,0 mm 4,8 km/h (1 Bft) W-SW 247 0 min 0 UV-I 19 W/m 14,5 km/h (3 Bft)
12.05.2010 19:30 7,8 C 87 % 1008,9 hPa 0,0 mm 3,2 km/h (1 Bft) W-SW 247 0 min 0 UV-I 18 W/m 11,3 km/h (2 Bft)
12.05.2010 19:40 7,8 C 88 % 1009,0 hPa 0,0 mm 1,6 km/h (1 Bft) W-SW 247 0 min 0 UV-I 25 W/m 6,4 km/h (2 Bft)
12.05.2010 19:50 7,7 C 88 % 1009,0 hPa 0,0 mm 3,2 km/h (1 Bft) W-SW 247 0 min 0 UV-I 19 W/m 8,0 km/h (2 Bft)
12.05.2010 20:00 7,7 C 88 % 1009,0 hPa 0,0 mm 3,2 km/h (1 Bft) W-SW 247 0 min 0 UV-I 16 W/m 9,7 km/h (2 Bft)
12.05.2010 20:10 7,7 C 89 % 1009,0 hPa 0,0 mm 4,8 km/h (1 Bft) W 270 0 min 0 UV-I 11 W/m 11,3 km/h (2 Bft)
12.05.2010 20:20 7,6 C 89 % 1009,1 hPa 0,3 mm 1,6 km/h (1 Bft) W-SW 247 0 min 0 UV-I 0 W/m 9,7 km/h (2 Bft)
12.05.2010 20:30 7,6 C 89 % 1009,2 hPa 0,0 mm 3,2 km/h (1 Bft) W 270 0 min 0 UV-I 0 W/m 9,7 km/h (2 Bft)
12.05.2010 20:40 7,5 C 89 % 1009,2 hPa 0,0 mm 3,2 km/h (1 Bft) W-SW 247 0 min 0 UV-I 0 W/m 8,0 km/h (2 Bft)
12.05.2010 20:50 7,5 C 89 % 1009,3 hPa 0,0 mm 3,2 km/h (1 Bft) W-SW 247 0 min 0 UV-I 0 W/m 8,0 km/h (2 Bft)
12.05.2010 21:00 7,4 C 90 % 1009,4 hPa 0,0 mm 3,2 km/h (1 Bft) W-SW 247 0 min 0 UV-I 0 W/m 9,7 km/h (2 Bft)
12.05.2010 21:10 7,3 C 89 % 1009,4 hPa 0,0 mm 1,6 km/h (1 Bft) W-SW 247 0 min 0 UV-I 0 W/m 8,0 km/h (2 Bft)
12.05.2010 21:20 7,3 C 90 % 1009,5 hPa 0,0 mm 1,6 km/h (1 Bft) W 270 0 min 0 UV-I 0 W/m 9,7 km/h (2 Bft)
12.05.2010 21:30 7,3 C 90 % 1009,6 hPa 0,0 mm 1,6 km/h (1 Bft) W-SW 247 0 min 0 UV-I 0 W/m 8,0 km/h (2 Bft)
12.05.2010 21:40 7,3 C 90 % 1009,7 hPa 0,0 mm 1,6 km/h (1 Bft) SW 225 0 min 0 UV-I 0 W/m 6,4 km/h (2 Bft)
12.05.2010 21:50 7,3 C 90 % 1009,8 hPa 0,0 mm 1,6 km/h (1 Bft) W-SW 247 0 min 0 UV-I 0 W/m 6,4 km/h (2 Bft)
12.05.2010 22:00 7,3 C 90 % 1009,9 hPa 0,0 mm 3,2 km/h (1 Bft) W-SW 247 0 min 0 UV-I 0 W/m 9,7 km/h (2 Bft)
12.05.2010 22:10 7,3 C 90 % 1010,0 hPa 0,0 mm 3,2 km/h (1 Bft) W-SW 247 0 min 0 UV-I 0 W/m 11,3 km/h (2 Bft)
12.05.2010 22:20 7,2 C 90 % 1009,9 hPa 0,0 mm 3,2 km/h (1 Bft) W-SW 247 0 min 0 UV-I 0 W/m 9,7 km/h (2 Bft)
12.05.2010 22:30 7,2 C 90 % 1010,0 hPa 0,0 mm 3,2 km/h (1 Bft) W-SW 247 0 min 0 UV-I 0 W/m 9,7 km/h (2 Bft)
12.05.2010 22:40 7,2 C 90 % 1010,1 hPa 0,0 mm 3,2 km/h (1 Bft) W 270 0 min 0 UV-I 0 W/m 11,3 km/h (2 Bft)
12.05.2010 22:50 7,1 C 90 % 1010,2 hPa 0,0 mm 3,2 km/h (1 Bft) W 270 0 min 0 UV-I 0 W/m 9,7 km/h (2 Bft)
12.05.2010 23:00 7,1 C 90 % 1010,1 hPa 0,0 mm 3,2 km/h (1 Bft) W-SW 247 0 min 0 UV-I 0 W/m 9,7 km/h (2 Bft)
12.05.2010 23:10 7,1 C 91 % 1010,1 hPa 0,0 mm 3,2 km/h (1 Bft) W-SW 247 0 min 0 UV-I 0 W/m 11,3 km/h (2 Bft)
12.05.2010 23:20 7,1 C 91 % 1010,2 hPa 0,0 mm 1,6 km/h (1 Bft) W 270 0 min 0 UV-I 0 W/m 8,0 km/h (2 Bft)
12.05.2010 23:30 7,1 C 91 % 1010,1 hPa 0,0 mm 3,2 km/h (1 Bft) W 270 0 min 0 UV-I 0 W/m 6,4 km/h (2 Bft)
12.05.2010 23:40 7,0 C 91 % 1010,1 hPa 0,0 mm 3,2 km/h (1 Bft) W 270 0 min 0 UV-I 0 W/m 9,7 km/h (2 Bft)
12.05.2010 23:50 7,0 C 91 % 1010,1 hPa 0,0 mm 1,6 km/h (1 Bft) W 270 0 min 0 UV-I 0 W/m 9,7 km/h (2 Bft)
_ Min-Zeit 23:50 00:00 04:40 - 01:00 - - - - - 02:50
Minimum _ 6,9 C 79 % 1001,5 hPa - 0,0 km/h (0 Bft) - - - - - 0,0 km/h (0 Bft)
_ Max-Zeit 00:00 23:10 22:50 02:50 08:00 - - 00:00 15:40 17:00 08:10
Maximum _ 11,1 C 91 % 1010,2 hPa 0,5 mm 12,1 km/h
W (2 Bft)
- - 0 min 1 UV-I 167 W/m 32,2 km/h
W-SW (5 Bft)
Durchschnitt _ 8,4 C 87 % 1005,9 hPa #2,0 mm 4,3 km/h (1 Bft) W-SW - #0 min. 1 UV-I 66 W/m 13,6 km/h (3 Bft)